Home > Weather > Patna > Past weeks

Flag for India Weather for the Past 2 Weeks in Patna, Bihar, India

Now
84 °F

Haze.


Feels Like: 88 °F
Forecast: 85 / 99 °F
Wind: 12 mph from East

Location: Patna Airport

Current Time: May 3, 2016 at 9:09:49 AM

Latest Report: May 3, 2016 at 8:00 AM


Visibility: 2 mi

Pressure: 29.74 "Hg

Humidity: 62%

Dew Point: 70 °F

Location of PatnaLocation

Historic Weather in Patna — Graph

°F

Patna Temperature Yesterday

Maximum temperature yesterday: 97 °F (at 2:30 PM)
Minimum temperature yesterday: 81 °F (at 5:30 AM)
Average temperature yesterday: 89 °F

High & Low Weather Summary for the Past Weeks

 TemperatureHumidityPressure
High111 °F (Apr 26, 2:30 PM)84% (Apr 19, 5:30 AM)29.77 "Hg (Apr 19, 5:30 AM)
Low73 °F (Apr 26, 5:30 AM)8% (Apr 24, 2:30 PM)29.39 "Hg (Apr 23, 3:30 PM)
Average96 °F30%29.59 "Hg
* Reported Apr 18 6:30 AM — May 3 7:00 AM, Patna, Weather by CustomWeather, © 2016

Note: Actual official high and low records may vary slightly from our data, if they occured in-between our weather recording intervals... More about our weather records

Advertising

Patna Weather History for the Previous 24 Hours

Scroll right to see more
 ConditionsComfort  
Time TempWeatherWind HumidityBarometerVisibility
7:00 AM
Tue, May 3
81 °FHaze.12 mph70%29.71 "Hg1 mi
6:30 AM79 °FHaze.12 mph74%29.71 "Hg1 mi
5:30 AM75 °FHaze.12 mph61%29.71 "Hg1 mi
10:00 PM
Mon, May 2
82 °FHaze.9 mph51%29.68 "Hg2 mi
9:30 PM84 °FHaze.9 mph48%29.68 "Hg2 mi
9:00 PM84 °FHaze.9 mph48%29.68 "Hg2 mi
8:30 PM86 °FHaze.14 mph49%29.65 "Hg2 mi
8:00 PM86 °FHaze.12 mph52%29.65 "Hg2 mi
7:30 PM86 °FHaze.12 mph52%29.65 "Hg2 mi
7:00 PM88 °FHaze.12 mph52%29.65 "Hg2 mi
6:30 PM90 °FHaze.12 mph49%29.65 "Hg2 mi
6:00 PM91 °FHaze.9 mph46%29.62 "Hg3 mi
5:30 PM91 °FHaze.14 mph46%29.62 "Hg3 mi
5:00 PM91 °FHaze.14 mph46%29.59 "Hg3 mi
4:30 PM93 °FHaze.7 mph41%29.59 "Hg3 mi
4:00 PM95 °FHaze.14 mph41%29.59 "Hg3 mi
3:30 PM95 °FHaze.12 mph41%29.62 "Hg3 mi
3:00 PM95 °FHaze.14 mph41%29.62 "Hg3 mi
2:30 PM97 °FScattered clouds.12 mph39%29.62 "Hg3 mi
2:00 PM93 °FScattered clouds.10 mph47%29.62 "Hg3 mi
1:30 PM95 °FScattered clouds.9 mph53%29.62 "Hg3 mi
1:00 PM93 °FScattered clouds.9 mph49%29.62 "Hg3 mi
12:30 PM93 °FScattered clouds.9 mph53%29.65 "Hg3 mi
11:30 AM91 °FScattered clouds.9 mph56%29.68 "Hg3 mi
10:30 AM91 °FScattered clouds.9 mph52%29.68 "Hg3 mi
10:00 AM91 °FScattered clouds.14 mph52%29.71 "Hg3 mi
9:30 AM88 °FScattered clouds.14 mph62%29.71 "Hg3 mi
9:00 AM88 °FScattered clouds.9 mph62%29.68 "Hg2 mi
Weather by CustomWeather, © 2016

See weather overviewHow to use our weather pages